Terminal Aerodrome Forecast
Issued by NWS Raleigh/Durham, NC

Home | Current Version | Previous Version | Text Only | Print | Product List | Glossary On
Versions: 1 2 3 4 5 6 7 8 9 10 11 12 13 14 15 16 17 18 19 20 21 22 23 24 25 26 27 28 29 30 31 32 33 34 35 36 37 38 39 40 41 42 43 44 45 46 47 48 49 50
000
FTUS42 KRAH 162159 AAD
TAFGSO
TAF AMD
KGSO 162159Z 1622/1718 VRB06KT P6SM VCTS SCT040CB BKN090 BKN250
      TEMPO 1622/1624 32010G20KT 2SM TSRA BKN040CB
     FM170000 VRB05KT P6SM BKN060 BKN100
     FM170600 03005KT P6SM BKN035
     FM171300 04009KT P6SM OVC012=

USA.gov is the U.S. government's official web portal to all federal, state and local government web resources and services.